STARLINK-34588, 64729

Orbit data source: Space-Track

STARLINK-34588, 64729 is a payload satellite owned by SpaceX/Seattle (US) in LEO that was launched on Wed, 02 Jul 2025 UTC via an FALCON 9 launch vehicle from the Air Force Eastern Test Range (AFETR). Payload-class satellites include a variety of spacecraft equipped with specific instruments for various scientific and technological missions. These include communications satellites like Starlink; space stations such as the ISS; scientific satellites like the Hubble; Earth observation satellites from companies like Planet Labs, Umbra, and HawkEye 360; GPS; miniature CubeSats for education and research; and military/defense satellites.

Not visible in the next 10 days
Identifier
64729, 2025-144F
Orbit
LEO
Last TLE update
14 hours ago
Origin
Manufacturer
SpaceX/Seattle
Mission
Operational spacecraft
Bus & Motor
STARLINK V2MO, Unknown motor
Mass
575 kg wet, ~530 kg dry
Launch date (UTC)
2025-07-02 (1 week ago)
Launch vehicle
FALCON 9
Launch site
Air Force Eastern Test Range (AFETR)
Object type
Payload
Rocket body
Debris
Shape & HBR
Unknown
Radar Cross Section
RCS unknown

Expand to show TLE details & history

TLE from 14 hours ago
0 STARLINK-34588
1 64729U 25144F   25191.66668981 -.01120990  00000-0 -46314-2 0  9996
2 64729  53.1539 231.7640 0000830  71.7817   2.8413 15.87776049  2577
Epoch: 2025-07-10T16:00Z
TLE epoch observation values (Epoch: 2025-07-10T16:00:01.999Z)
Latitude
50.65126°
Longitude
128.26329°
Altitude
313.908 km
Speed
7.726 km/s
True Right ascension
19h 48m 24s
True Declination
50° 28' 17"
Sunlit
Object was in partial shadow at epoch
Visualization orbit readout
Latitude
-11.29727°
Longitude
-111.48679°
Altitude
315.978 km
Speed
7.719 km/s
Apparent Right ascension
04h 54m 46s
Apparent Declination
-26° 22' 36"
Sunlit
Object is in daylight
Visualization observer readout
Local Sidereal Time
18:23:23
Azimuth
60.432° ENE
Elevation
-67.143°
Doppler factor
1
Orbital elements
Apogee altitude
309.338 km
Perigee altitude
308.228 km
Semi-major axis
6,686.92 km
Eccentricity
0.00008
Inclination
53.1539°
RAAN
231.764°
Arg. of periapsis
71.7817°
True anomaly
Unknown
Mean anomaly
2.8413°
Eccentric anomaly
Unknown
Mean motion
3.96921 °/min
Orbital period
90.7 mins
BSTAR
-0.0046314
Loading maneuver chart data...
Loading SW <> Apogee altitude chart data...
Loading historical data...
Loading historical data...
Loading historical data...
Loading historical data...
Loading historical data...
Loading historical data...
Loading historical data...

STARLINK-34588 Visibility

Observer location: undefined°, undefined°

STARLINK-34588 is likely not visible in the next few days
Span
Click to sort rows by Start time (UTC) header in descending order
Start Az.
Max El. time (UTC)
Max El. Az.
Max El.
End time (UTC)
End Az.
|